Change the Weather History Date:

Monday, December 17, 2012

  Actual Average Record
Temperature  
Mean Temperature 40 °F 35 °F  
Max Temperature 42 °F 42 °F 61 °F (2000)
Min Temperature 38 °F 28 °F 5 °F (1951)
Degree Days  
Heating Degree Days 25 30  
Month to date heating degree days 389 468  
Since 1 July heating degree days 1305 1442  
Cooling Degree Days 0 0  
Month to date cooling degree days 0 0  
Year to date cooling degree days 1075 825  
Moisture  
Dew Point 38 °F    
Average Humidity 93    
Maximum Humidity 100    
Minimum Humidity 86    
Precipitation  
Precipitation 0.36 in 0.10 in 0.98 in (2000)
Month to date precipitation 1.53 1.90  
Year to date precipitation 38.20 41.31  
Snow  
Snow 0.00 in 0.20 in 3.70 in (2013)
Month to date snowfall T 2.1  
Since 1 July snowfall 8.4 2.8  
Snow Depth 0.00 in    
Sea Level Pressure  
Sea Level Pressure 29.86 in    
Wind  
Wind Speed 12 mph (NE)    
Max Wind Speed 20 mph    
Max Gust Speed 26 mph    
Visibility 7 miles    
Events Rain    
T = Trace of Precipitation, MM = Missing Value Source: NWS Daily Summary

Daily Weather History Graph

Daily Weather History Graph

Search for Another Location

Airport or City:

Trip Planner

Search our weather history database for the weather conditions in past years. The results will help you decide how hot, cold, wet, or windy it might be!

Date:

Astronomy

Dec. 17, 2012 Rise Set
Actual Time 7:12 AM EST 4:25 PM EST
Civil Twilight 6:41 AM EST 4:56 PM EST
Nautical Twilight 6:06 AM EST 5:31 PM EST
Astronomical Twilight 5:32 AM EST 6:04 PM EST
Moon 10:17 AM EST (12/17) 9:46 PM EST (12/17)
Length of Visible Light 10h 15m
Length of Day
9h 12m
Waxing Crescent, 24% of the Moon is Illuminated
Dec 17
Waxing Crescent
Dec 20
First Quarter
Dec 28
Full
Jan 4
Last Quarter
Jan 11
New

Hourly Weather History & Observations

Time (EST) Temp. Windchill Dew Point Humidity Pressure Visibility Wind Dir Wind Speed Gust Speed Precip Events Conditions
12:52 AM 37.4 °F 28.9 °F 37.4 °F 100% 29.93 in 6.0 mi NNE 13.8 mph - N/A Rain Light Rain
1:52 AM 39.0 °F 31.4 °F 37.0 °F 93% 29.94 in 7.0 mi NNE 12.7 mph - 0.09 in Rain Light Rain
2:31 AM 37.4 °F 28.2 °F 37.4 °F 100% 29.91 in 7.0 mi NE 16.1 mph - 0.07 in Rain Light Rain
2:52 AM 39.0 °F 30.3 °F 37.0 °F 93% 29.91 in 7.0 mi NE 16.1 mph 21.9 mph 0.09 in Rain Light Rain
3:40 AM 39.2 °F 31.2 °F 37.4 °F 93% 29.90 in 10.0 mi NNE 13.8 mph - 0.02 in Rain Light Rain
3:52 AM 39.0 °F 31.4 °F 37.9 °F 96% 29.91 in 10.0 mi NNE 12.7 mph - 0.03 in Rain Light Rain
4:23 AM 39.2 °F 32.5 °F 37.4 °F 93% 29.90 in 10.0 mi NNE 10.4 mph - 0.02 in Rain Light Rain
4:52 AM 39.9 °F 32.9 °F 37.9 °F 93% 29.91 in 10.0 mi NNE 11.5 mph - 0.04 in Rain Light Rain
5:52 AM 39.9 °F 32.5 °F 37.9 °F 93% 29.89 in 10.0 mi NE 12.7 mph - 0.00 in Rain Light Rain
6:52 AM 39.0 °F 31.4 °F 37.0 °F 93% 29.91 in 7.0 mi NNE 12.7 mph - 0.02 in Rain Rain
7:52 AM 39.0 °F 31.8 °F 37.0 °F 93% 29.91 in 10.0 mi NNE 11.5 mph - 0.02 in   Overcast
8:52 AM 39.0 °F 31.8 °F 37.0 °F 93% 29.91 in 10.0 mi NNE 11.5 mph - N/A   Overcast
9:37 AM 39.2 °F 32.5 °F 37.4 °F 93% 29.91 in 10.0 mi NE 10.4 mph - N/A   Overcast
9:52 AM 39.9 °F 32.9 °F 37.9 °F 93% 29.91 in 10.0 mi NE 11.5 mph - N/A   Overcast
10:52 AM 41.0 °F 34.7 °F 37.9 °F 89% 29.91 in 10.0 mi NNE 10.4 mph - N/A   Overcast
11:52 AM 39.9 °F 33.4 °F 37.9 °F 93% 29.89 in 6.0 mi NNE 10.4 mph - N/A   Overcast
12:52 PM 41.0 °F 34.7 °F 39.0 °F 93% 29.89 in 7.0 mi NNE 10.4 mph - N/A   Overcast
1:52 PM 41.0 °F 34.7 °F 39.0 °F 93% 29.86 in 10.0 mi NNE 10.4 mph - N/A   Overcast
2:52 PM 41.0 °F 34.3 °F 37.9 °F 89% 29.85 in 10.0 mi NNE 11.5 mph - N/A   Overcast
3:52 PM 39.9 °F 33.4 °F 39.0 °F 97% 29.82 in 5.0 mi NNE 10.4 mph - N/A   Overcast
4:52 PM 39.9 °F 33.4 °F 39.0 °F 97% 29.82 in 10.0 mi NNE 10.4 mph - N/A   Overcast
7:52 PM 41.0 °F 34.7 °F 39.0 °F 93% 29.80 in 7.0 mi NNE 10.4 mph - N/A   Overcast
8:52 PM 41.0 °F 34.7 °F 39.9 °F 96% 29.78 in 3.0 mi NE 10.4 mph - N/A   Overcast
9:07 PM 41.0 °F 33.5 °F 39.2 °F 93% 29.75 in 2.5 mi NE 13.8 mph - N/A   Overcast
9:19 PM 41.0 °F 33.1 °F 39.2 °F 93% 29.76 in 2.0 mi NE 15.0 mph - N/A   Overcast
9:52 PM 41.0 °F 33.5 °F 41.0 °F 100% 29.75 in 2.0 mi NE 13.8 mph - 0.01 in   Overcast
10:52 PM 42.1 °F 34.5 °F 41.0 °F 96% 29.71 in 2.0 mi NE 15.0 mph - N/A   Overcast
11:24 PM 42.8 °F 35.4 °F 41.0 °F 93% 29.69 in 3.0 mi NE 15.0 mph - 0.01 in Rain Light Rain
11:52 PM 42.1 °F 34.5 °F 41.0 °F 96% 29.68 in 4.0 mi NE 15.0 mph - 0.02 in Rain Light Rain